Curacao, Curacao

3:32 AM AST on January 20, 2018 (GMT -0400)
Willemstad-Hato International

Weather History for TNCC - October, 2013

Change the Weather History Date:

Saturday, October 5, 2013

  Actual Average Record
Temperature  
Mean Temperature 85 °F -  
Max Temperature 90 °F 88 °F 95 °F (2015)
Min Temperature 80 °F 77 °F 73 °F (2004)
Cooling Degree Days 20    
Growing Degree Days 35 (Base 50)    
Moisture  
Dew Point 77 °F    
Average Humidity 78    
Maximum Humidity 89    
Minimum Humidity 59    
Precipitation  
Precipitation 0.00 in 0.11 in - ()
Sea Level Pressure  
Sea Level Pressure 29.87 in    
Wind  
Wind Speed 8 mph ()    
Max Wind Speed 14 mph    
Max Gust Speed -    
Visibility 7.5 miles    
Events Thunderstorm    
Averages and records for this station are not official NWS values.
T = Trace of Precipitation, MM = Missing Value Source: Averaged Metar Reports

Daily Weather History Graph

Daily Weather History Graph

Search for Another Location

Airport or City:

Trip Planner

Search our weather history database for the weather conditions in past years. The results will help you decide how hot, cold, wet, or windy it might be!

Date:

Astronomy

Oct. 05, 2013 Rise Set
Actual Time 6:25 AM AST 6:23 PM AST
Civil Twilight 6:03 AM AST 6:44 PM AST
Nautical Twilight 5:39 AM AST 7:08 PM AST
Astronomical Twilight 5:14 AM AST 7:33 PM AST
Moon 6:49 AM AST (10/5) 6:55 PM AST (10/5)
Length of Visible Light 12h 40m
Length of Day
11h 58m
New Moon, 0% of the Moon is Illuminated
Oct 5
New Moon
Oct 11
First Quarter
Oct 18
Full
Oct 26
Last Quarter
Nov 3
New

Hourly Weather History & Observations

Time (AST) Temp. Heat Index Dew Point Humidity Pressure Visibility Wind Dir Wind Speed Gust Speed Precip Events Conditions
1:00 AM 82.4 °F 90.9 °F 77.0 °F 84% 29.89 in 6.2 mi East 8.1 mph - N/A   Partly Cloudy
2:00 AM 82 °F - 77 °F 81% 29.88 in 19 mi East 8.1 mph - -   Scattered Clouds
2:00 AM 82.4 °F 90.9 °F 77.0 °F 84% 29.86 in 6.2 mi East 8.1 mph - N/A   Partly Cloudy
3:00 AM 82.4 °F 90.9 °F 77.0 °F 84% 29.86 in 6.2 mi East 6.9 mph - N/A Thunderstorm Thunderstorm
4:00 AM 82.4 °F 90.9 °F 77.0 °F 84% 29.86 in 6.2 mi East 5.8 mph - N/A Thunderstorm Thunderstorm
5:00 AM 81 °F - 76 °F 82% 29.87 in 19 mi SE 3.5 mph - - Thunderstorm Light Thunderstorm
5:00 AM 80.6 °F 87.1 °F 77.0 °F 89% 29.86 in 6.2 mi SE 3.5 mph - N/A   Partly Cloudy
6:00 AM 80.6 °F 87.1 °F 77.0 °F 89% 29.89 in 6.2 mi SE 4.6 mph - N/A   Partly Cloudy
7:00 AM 80.6 °F 87.1 °F 77.0 °F 89% 29.89 in 6.2 mi SE 5.8 mph - N/A   Partly Cloudy
8:00 AM 84 °F - 77 °F 75% 29.92 in 31 mi ESE 8.1 mph - -   Partly Cloudy
8:00 AM 84.2 °F 94.1 °F 77.0 °F 79% 29.92 in 6.2 mi ESE 10.4 mph - N/A   Scattered Clouds
9:00 AM 87.8 °F 99.7 °F 77.0 °F 70% 29.92 in 6.2 mi East 11.5 mph - N/A   Scattered Clouds
10:00 AM 87.8 °F 102.5 °F 78.8 °F 75% 29.95 in 6.2 mi East 11.5 mph - N/A   Scattered Clouds
11:00 AM 87 °F - 78 °F 68% 29.94 in 31 mi East 13.8 mph - -   Partly Cloudy
11:00 AM 87.8 °F 99.7 °F 77.0 °F 70% 29.92 in 6.2 mi East 12.7 mph - N/A   Scattered Clouds
12:00 PM 89.6 °F 104.7 °F 78.8 °F 70% 29.92 in 6.2 mi East 12.7 mph - N/A   Scattered Clouds
1:00 PM 87.8 °F 102.5 °F 78.8 °F 75% 29.89 in 6.2 mi East 12.7 mph - N/A   Scattered Clouds
2:00 PM 90 °F - 78 °F 59% 29.86 in 31 mi East 13.8 mph - -   Scattered Clouds
2:00 PM 89.6 °F 102.2 °F 77.0 °F 66% 29.86 in 6.2 mi East 12.7 mph - N/A   Partly Cloudy
3:00 PM 87.8 °F 102.5 °F 78.8 °F 75% 29.83 in 6.2 mi East 12.7 mph - N/A   Partly Cloudy
4:00 PM 87.8 °F 102.5 °F 78.8 °F 75% 29.80 in 6.2 mi East 11.5 mph - N/A   Partly Cloudy
5:00 PM 86 °F - 78 °F 71% 29.81 in 31 mi East 9.2 mph - -   Scattered Clouds
5:00 PM 86.0 °F 99.3 °F 78.8 °F 79% 29.80 in 6.2 mi East 11.5 mph - N/A   Partly Cloudy
6:00 PM 84.2 °F 96.1 °F 78.8 °F 84% 29.80 in - East 10.4 mph - N/A   Clear
7:00 PM 84.2 °F 94.1 °F 77.0 °F 79% 29.80 in - East 11.5 mph - N/A   Clear
8:00 PM 84 °F - 77 °F 74% 29.84 in 31 mi ESE 9.2 mph - -   Clear
8:00 PM 84.2 °F 94.1 °F 77.0 °F 79% 29.83 in - ESE 12.7 mph - N/A   Clear
9:00 PM 84.2 °F 94.1 °F 77.0 °F 79% 29.86 in - East 12.7 mph - N/A   Clear
10:00 PM 82.4 °F 90.9 °F 77.0 °F 84% 29.86 in - ESE 11.5 mph - N/A   Clear
11:00 PM 82.4 °F 90.9 °F 77.0 °F 84% 29.89 in - ESE 12.7 mph - N/A   Clear